Home > Weather > Fort Bragg > Past weeks

Flag for U.S.A. Weather for the Past 2 Weeks in Fort Bragg, California, U.S.A.

Now
52 °F

Clear.


Feels Like: 52 °F
Forecast: 51 / 60 °F
Wind: No wind

Location: Ukiah Municipal

Current Time: Feb 9, 2016 at 9:42:16 PM

Latest Report: Feb 9, 2016 at 8:56 PM


Visibility: 10 mi

Pressure: 30.17 "Hg

Humidity: 80%

Dew point: 46 °F

Location of Fort BraggLocation

Historic Weather in Fort Bragg — Graph

°F

Fort Bragg Temperature Yesterday

Maximum temperature yesterday: 82 °F (at 2:56 PM)
Minimum temperature yesterday: 42 °F (at 5:56 AM)
Average temperature yesterday: 57 °F

High & Low Weather Summary for the Past Weeks

 TemperatureHumidityPressure
High82 °F (Feb 8, 2:56 PM)100% (Feb 4, 7:56 AM)30.48 "Hg (Feb 4, 7:56 AM)
Low35 °F (Feb 1, 2:56 AM)20% (Feb 8, 2:56 PM)29.80 "Hg (Jan 31, 2:56 PM)
Average50 °F78%30.23 "Hg
* Reported Jan 25 7:56 PM — Feb 9 7:56 PM, Fort Bragg, Weather by CustomWeather, © 2016

Note: Actual official high and low records may vary slightly from our data, if they occured in-between our weather recording intervals... More about our weather records

Advertising

Fort Bragg Weather History for the Previous 24 Hours

 ConditionsComfort  
Time TempWeatherWind HumidityBarometerVisibility
7:56 PM
Tue, Feb 9
56 °FClear.3 mph72%30.16 "Hg10 mi
6:56 PM59 °FClear.No wind64%30.16 "Hg10 mi
5:56 PM62 °FClear.No wind60%30.14 "Hg10 mi
4:56 PM72 °FSunny.No wind40%30.14 "Hg10 mi
3:56 PM72 °FSunny.5 mph43%30.13 "Hg10 mi
2:56 PM74 °FSunny.3 mph37%30.14 "Hg10 mi
1:56 PM73 °FSunny.3 mph38%30.15 "Hg10 mi
12:56 PM70 °FSunny.No wind38%30.16 "Hg10 mi
11:56 AM65 °FSunny.3 mph47%30.18 "Hg10 mi
10:56 AM58 °FSunny.No wind60%30.21 "Hg10 mi
9:56 AM54 °FSunny.No wind69%30.23 "Hg10 mi
8:56 AM47 °FSunny.No wind83%30.26 "Hg10 mi
7:56 AM42 °FSunny.No wind89%30.25 "Hg10 mi
6:56 AM39 °FClear.No wind93%30.23 "Hg10 mi
5:56 AM41 °FClear.No wind89%30.22 "Hg10 mi
4:56 AM42 °FClear.No wind89%30.20 "Hg10 mi
3:56 AM42 °FClear.No wind89%30.19 "Hg10 mi
2:56 AM43 °FClear.No wind89%30.20 "Hg10 mi
1:56 AM45 °FClear.No wind90%30.19 "Hg10 mi
12:56 AM47 °FClear.No wind83%30.19 "Hg9 mi
11:56 PM
Mon, Feb 8
46 °FClear.No wind86%30.20 "Hg10 mi
10:56 PM50 °FClear.No wind80%30.19 "Hg10 mi
9:56 PM51 °FClear.No wind77%30.19 "Hg10 mi
Weather by CustomWeather, © 2016

See weather overviewHow to use our weather pages